Ship Status Report: callsign WDG2073

sailwx.info

Track history (hours):
 
Tides and Currents Weather Stations Pressure Air Temp Water Temp Dewpoint Dewpoint Depression Visibility Wind Speed Wind Dir Waves Ship Positions

Oceanographic research ship ()

Owner: Ocean Starr Holding, LLC, Seattle, WA. More information available from US FCC via Universal Licensing System and Coast Guard Vessel Documentation Center.

Last reported at 2017-Oct-18 13:59 UTC. Time now 2017-Oct-18 14:58 UTC.
Position N 47°40' W 122°24'.

Length 56 m; draft 3.6 m.

Type: Ship. MMSI: 367122000.

Date/timePositionNaut miles runAvg speedWind from/ knotsBaromVisibWave heightAir tempDewpointWater temp
2017-Oct-18 13:59N 47°40' W 122°24'0 0.0
2017-Oct-18 13:29N 47°40' W 122°24'0 0.0
2017-Oct-18 13:00N 47°40' W 122°24'0 0.0
2017-Oct-18 12:30N 47°40' W 122°24'0 0.0
2017-Oct-18 12:01N 47°40' W 122°24'0 0.0
2017-Oct-18 11:31N 47°40' W 122°24'0 0.0
2017-Oct-18 11:00N 47°40' W 122°24'0 0.0
2017-Oct-18 10:31N 47°40' W 122°24'0 0.0
2017-Oct-18 10:00N 47°40' W 122°24'0 0.0
2017-Oct-18 09:31N 47°40' W 122°24'0 0.0
2017-Oct-18 09:00N 47°40' W 122°24'0 0.0
2017-Oct-18 08:31N 47°40' W 122°24'0 0.0
2017-Oct-18 08:00N 47°40' W 122°24'0 0.0
2017-Oct-18 07:30N 47°40' W 122°24'0 0.0
2017-Oct-18 07:01N 47°40' W 122°24'0 0.0
2017-Oct-18 06:30N 47°40' W 122°24'0 0.0
2017-Oct-18 06:00N 47°40' W 122°24'0 0.0
2017-Oct-18 05:30N 47°40' W 122°24'0 0.0
2017-Oct-18 05:01N 47°40' W 122°24'0 0.0
2017-Oct-18 04:30N 47°40' W 122°24'0 0.0
2017-Oct-18 04:00N 47°40' W 122°24'0 0.8
2017-Oct-18 03:31N 47°40' W 122°23'2 4.8
2017-Oct-18 03:01N 47°39' W 122°20'2 4.8
2017-Oct-18 02:31N 47°39' W 122°16'2 4.9
2017-Oct-18 02:00N 47°41' W 122°16'0 0.1
2017-Oct-18 01:31N 47°41' W 122°16'0 0.0
2017-Oct-18 01:00N 47°41' W 122°16'0 0.0
2017-Oct-18 00:30N 47°41' W 122°16'0 0.0
2017-Oct-18 00:01N 47°41' W 122°16'0 0.0
2017-Oct-17 23:30N 47°41' W 122°16'0 0.0
2017-Oct-17 23:00N 47°41' W 122°16'0 0.0
2017-Oct-17 22:30N 47°41' W 122°16'0 0.0
2017-Oct-17 22:00N 47°41' W 122°16'0 0.0
2017-Oct-17 21:31N 47°41' W 122°16'0 0.1
2017-Oct-17 21:00N 47°41' W 122°16'0 0.1
2017-Oct-17 20:30N 47°41' W 122°16'1 2.6
2017-Oct-17 20:00N 47°40' W 122°14'3 6.4
2017-Oct-17 19:30N 47°39' W 122°19'2 4.6
2017-Oct-17 19:01N 47°39' W 122°22'1 2.6
2017-Oct-17 18:30N 47°40' W 122°24'1 1.5
2017-Oct-17 18:01N 47°40' W 122°25'4 7.0
2017-Oct-17 17:31N 47°43' W 122°28'4 7.9
2017-Oct-17 17:00N 47°47' W 122°28'4 7.4
2017-Oct-17 16:30N 47°51' W 122°29'3 6.9
2017-Oct-17 16:00N 47°54' W 122°30'3 5.9
2017-Oct-17 15:30N 47°56' W 122°33'3 5.3
2017-Oct-17 15:00N 47°58' W 122°36'2 4.5
2017-Oct-17 14:30N 48°00' W 122°38'2 4.4
2017-Oct-17 14:00N 48°02' W 122°39'2 5.0
2017-Oct-17 13:30N 48°05' W 122°40'3 4.9
2017-Oct-17 12:59N 48°07' W 122°41'3 5.7
2017-Oct-17 12:30N 48°09' W 122°44'3 5.9
2017-Oct-17 11:59N 48°10' W 122°48'4 7.4
2017-Oct-17 11:30N 48°11' W 122°53'4 8.0
2017-Oct-17 11:00N 48°11' W 122°59'4 8.3
2017-Oct-17 10:30N 48°12' W 123°06'4 8.9
2017-Oct-17 10:00N 48°12' W 123°12'4 8.6
2017-Oct-17 09:30N 48°13' W 123°19'5 9.1
2017-Oct-17 08:59N 48°13' W 123°26'4 8.7
2017-Oct-17 08:28N 48°13' W 123°32'4 8.7
2017-Oct-17 07:58N 48°13' W 123°39'4 8.2
2017-Oct-17 07:30N 48°13' W 123°45'4 8.4
2017-Oct-17 07:00N 48°13' W 123°51'5 9.2
2017-Oct-17 06:29N 48°14' W 123°58'4 9.0
2017-Oct-17 06:00N 48°16' W 124°04'4 8.5
2017-Oct-17 05:30N 48°17' W 124°10'4 8.1
2017-Oct-17 05:00N 48°19' W 124°15'4 7.2
2017-Oct-17 04:30N 48°21' W 124°20'3 6.9
2017-Oct-17 04:00N 48°22' W 124°25'3 6.8
2017-Oct-17 03:30N 48°23' W 124°30'3 6.5
2017-Oct-17 03:00N 48°25' W 124°34'3 6.2
2017-Oct-17 02:30N 48°26' W 124°38'3 5.6
2017-Oct-17 02:00N 48°27' W 124°42'3 5.5
2017-Oct-17 01:30N 48°28' W 124°46'3 6.3
2017-Oct-17 01:00N 48°28' W 124°51'3 6.3
2017-Oct-17 00:30N 48°28' W 124°56'3 7.0
2017-Oct-17 00:01N 48°28' W 125°01'4 7.4
2017-Oct-16 23:30N 48°28' W 125°07'4 7.5
2017-Oct-16 23:00N 48°29' W 125°12'4 7.3
2017-Oct-16 22:30N 48°30' W 125°17'4 7.5
2017-Oct-16 22:00N 48°32' W 125°22'4 7.6
2017-Oct-16 21:30N 48°34' W 125°27'4 7.5
2017-Oct-16 21:00N 48°35' W 125°32'4 7.8
2017-Oct-16 20:31N 48°37' W 125°38'4 7.9
2017-Oct-16 20:00N 48°39' W 125°43'4 7.7
2017-Oct-16 19:30N 48°40' W 125°48'4 7.8
2017-Oct-16 19:00N 48°42' W 125°53'4 8.0
2017-Oct-16 18:30N 48°44' W 125°58'4 7.7
2017-Oct-16 18:00N 48°46' W 126°04'4 7.5
2017-Oct-16 17:30N 48°48' W 126°09'4 7.3
2017-Oct-16 17:00N 48°50' W 126°14'4 7.2
2017-Oct-16 16:30N 48°51' W 126°18'4 7.3
2017-Oct-16 16:00N 48°53' W 126°23'4 7.6
2017-Oct-16 15:30N 48°55' W 126°28'4 7.7
2017-Oct-16 14:58N 48°57' W 126°34'  
Track history (hours):
 
Tides and Currents Weather Stations Pressure Air Temp Water Temp Dewpoint Dewpoint Depression Visibility Wind Speed Wind Dir Waves Ship Positions

Oceanographic research ship ()

Owner: Ocean Starr Holding, LLC, Seattle, WA. More information available from US FCC via Universal Licensing System and Coast Guard Vessel Documentation Center.

Last reported at 2017-Oct-18 13:59 UTC. Time now 2017-Oct-18 14:58 UTC.
Position N 47°40' W 122°24'.

Length 56 m; draft 3.6 m.

Type: Ship. MMSI: 367122000.

Date/timePositionNaut miles runAvg speedWind from/ knotsBaromVisibWave heightAir tempDewpointWater temp
2017-Oct-18 13:59N 47°40' W 122°24'0 0.0
2017-Oct-18 13:29N 47°40' W 122°24'0 0.0
2017-Oct-18 13:00N 47°40' W 122°24'0 0.0
2017-Oct-18 12:30N 47°40' W 122°24'0 0.0
2017-Oct-18 12:01N 47°40' W 122°24'0 0.0
2017-Oct-18 11:31N 47°40' W 122°24'0 0.0
2017-Oct-18 11:00N 47°40' W 122°24'0 0.0
2017-Oct-18 10:31N 47°40' W 122°24'0 0.0
2017-Oct-18 10:00N 47°40' W 122°24'0 0.0
2017-Oct-18 09:31N 47°40' W 122°24'0 0.0
2017-Oct-18 09:00N 47°40' W 122°24'0 0.0
2017-Oct-18 08:31N 47°40' W 122°24'0 0.0
2017-Oct-18 08:00N 47°40' W 122°24'0 0.0
2017-Oct-18 07:30N 47°40' W 122°24'0 0.0
2017-Oct-18 07:01N 47°40' W 122°24'0 0.0
2017-Oct-18 06:30N 47°40' W 122°24'0 0.0
2017-Oct-18 06:00N 47°40' W 122°24'0 0.0
2017-Oct-18 05:30N 47°40' W 122°24'0 0.0
2017-Oct-18 05:01N 47°40' W 122°24'0 0.0
2017-Oct-18 04:30N 47°40' W 122°24'0 0.0
2017-Oct-18 04:00N 47°40' W 122°24'0 0.8
2017-Oct-18 03:31N 47°40' W 122°23'2 4.8
2017-Oct-18 03:01N 47°39' W 122°20'2 4.8
2017-Oct-18 02:31N 47°39' W 122°16'2 4.9
2017-Oct-18 02:00N 47°41' W 122°16'0 0.1
2017-Oct-18 01:31N 47°41' W 122°16'0 0.0
2017-Oct-18 01:00N 47°41' W 122°16'0 0.0
2017-Oct-18 00:30N 47°41' W 122°16'0 0.0
2017-Oct-18 00:01N 47°41' W 122°16'0 0.0
2017-Oct-17 23:30N 47°41' W 122°16'0 0.0
2017-Oct-17 23:00N 47°41' W 122°16'0 0.0
2017-Oct-17 22:30N 47°41' W 122°16'0 0.0
2017-Oct-17 22:00N 47°41' W 122°16'0 0.0
2017-Oct-17 21:31N 47°41' W 122°16'0 0.1
2017-Oct-17 21:00N 47°41' W 122°16'0 0.1
2017-Oct-17 20:30N 47°41' W 122°16'1 2.6
2017-Oct-17 20:00N 47°40' W 122°14'3 6.4
2017-Oct-17 19:30N 47°39' W 122°19'2 4.6
2017-Oct-17 19:01N 47°39' W 122°22'1 2.6
2017-Oct-17 18:30N 47°40' W 122°24'1 1.5
2017-Oct-17 18:01N 47°40' W 122°25'4 7.0
2017-Oct-17 17:31N 47°43' W 122°28'4 7.9
2017-Oct-17 17:00N 47°47' W 122°28'4 7.4
2017-Oct-17 16:30N 47°51' W 122°29'3 6.9
2017-Oct-17 16:00N 47°54' W 122°30'3 5.9
2017-Oct-17 15:30N 47°56' W 122°33'3 5.3
2017-Oct-17 15:00N 47°58' W 122°36'2 4.5
2017-Oct-17 14:30N 48°00' W 122°38'2 4.4
2017-Oct-17 14:00N 48°02' W 122°39'2 5.0
2017-Oct-17 13:30N 48°05' W 122°40'3 4.9
2017-Oct-17 12:59N 48°07' W 122°41'3 5.7
2017-Oct-17 12:30N 48°09' W 122°44'3 5.9
2017-Oct-17 11:59N 48°10' W 122°48'4 7.4
2017-Oct-17 11:30N 48°11' W 122°53'4 8.0
2017-Oct-17 11:00N 48°11' W 122°59'4 8.3
2017-Oct-17 10:30N 48°12' W 123°06'4 8.9
2017-Oct-17 10:00N 48°12' W 123°12'4 8.6
2017-Oct-17 09:30N 48°13' W 123°19'5 9.1
2017-Oct-17 08:59N 48°13' W 123°26'4 8.7
2017-Oct-17 08:28N 48°13' W 123°32'4 8.7
2017-Oct-17 07:58N 48°13' W 123°39'4 8.2
2017-Oct-17 07:30N 48°13' W 123°45'4 8.4
2017-Oct-17 07:00N 48°13' W 123°51'5 9.2
2017-Oct-17 06:29N 48°14' W 123°58'4 9.0
2017-Oct-17 06:00N 48°16' W 124°04'4 8.5
2017-Oct-17 05:30N 48°17' W 124°10'4 8.1
2017-Oct-17 05:00N 48°19' W 124°15'4 7.2
2017-Oct-17 04:30N 48°21' W 124°20'3 6.9
2017-Oct-17 04:00N 48°22' W 124°25'3 6.8
2017-Oct-17 03:30N 48°23' W 124°30'3 6.5
2017-Oct-17 03:00N 48°25' W 124°34'3 6.2
2017-Oct-17 02:30N 48°26' W 124°38'3 5.6
2017-Oct-17 02:00N 48°27' W 124°42'3 5.5
2017-Oct-17 01:30N 48°28' W 124°46'3 6.3
2017-Oct-17 01:00N 48°28' W 124°51'3 6.3
2017-Oct-17 00:30N 48°28' W 124°56'3 7.0
2017-Oct-17 00:01N 48°28' W 125°01'4 7.4
2017-Oct-16 23:30N 48°28' W 125°07'4 7.5
2017-Oct-16 23:00N 48°29' W 125°12'4 7.3
2017-Oct-16 22:30N 48°30' W 125°17'4 7.5
2017-Oct-16 22:00N 48°32' W 125°22'4 7.6
2017-Oct-16 21:30N 48°34' W 125°27'4 7.5
2017-Oct-16 21:00N 48°35' W 125°32'4 7.8
2017-Oct-16 20:31N 48°37' W 125°38'4 7.9
2017-Oct-16 20:00N 48°39' W 125°43'4 7.7
2017-Oct-16 19:30N 48°40' W 125°48'4 7.8
2017-Oct-16 19:00N 48°42' W 125°53'4 8.0
2017-Oct-16 18:30N 48°44' W 125°58'4 7.7
2017-Oct-16 18:00N 48°46' W 126°04'4 7.5
2017-Oct-16 17:30N 48°48' W 126°09'4 7.3
2017-Oct-16 17:00N 48°50' W 126°14'4 7.2
2017-Oct-16 16:30N 48°51' W 126°18'4 7.3
2017-Oct-16 16:00N 48°53' W 126°23'4 7.6
2017-Oct-16 15:30N 48°55' W 126°28'4 7.7
2017-Oct-16 14:58N 48°57' W 126°34'  

Dump ship's entire track history